User: anonymous   Login
Location: Moena
(46.3667°N, 11.6500°E)
Time: 03:01:15
(UTC+00:00)
Language:

DMSP B5D2-2 - Orbit

View from above orbital plane
View from above orbital plane
View from above satellite
View from above satellite

Ground track
Ground track

The orbit data is extracted from the following two-line orbital elements,

1 14506U 83113A   21136.59154459  .00000033  00000-0  29864-4 0  9996
2 14506  98.3025 339.1982 0010529 325.2519 101.9200 14.28148932950227
Epoch (UTC): 16 May 2021 14:11:49
Eccentricity: 0.0010529
inclination: 98.3025°
perigee height: 790 km
apogee height: 805 km
right ascension of ascending node: 339.1982°
argument of perigee: 325.2519°
revolutions per day: 14.28148932
mean anomaly at epoch: 101.9200°
orbit number at epoch: 95022

The dashed part of the orbit path shows where the satellite is in the earth's shadow,  

DLR